Regional Weather Roundup
Issued by NWS Sterling, VA

Home | Current Version | Previous Version | Graphics & Text | Print | Product List | Glossary On
Versions: 1 2 3 4 5 6 7 8 9 10 11 12 13 14 15 16 17 18 19 20 21 22 23 24 25 26 27 28 29 30 31 32 33 34 35 36 37 38 39 40 41 42 43 44 45 46 47 48 49 50
000
ASUS41 KLWX 240811
RWRLWX

REGIONAL WEATHER ROUNDUP
NATIONAL WEATHER SERVICE BALTIMORE MD/WASHINGTON DC
400 AM EDT WED MAY 24 2017

Note: "FAIR" indicates few or no clouds below 12,000 feet
with no significant weather and/or obstructions to visibility.
 TC=TEMPERATURE CELSIUS

 * =Non NWS site. Station does not report precipitation (e.g. rain,
    snow, etc.), thunder, or fog.

DCZ001-MDZ009-015-VAZ040>042-051-053>054-240900-
WASHINGTON METRO

CITY           SKY/WX    TMP DP  RH WIND       PRES   REMARKS
WASHINGTON NAT LGT RAIN  59  57  93 NE8       29.71F
DULLES         LGT RAIN  59  57  93 SE6       29.71S FOG
ANDREWS AFB    LGT RAIN  57  54  90 E6        29.70F
FT BELVOIR     LGT RAIN  58  56  92 CALM      29.71S
QUANTICO       LGT RAIN  59  55  87 E9        29.72F
COLLEGE PARK*  CLOUDY    57  56  95 CALM      29.70F
LEESBURG*      LGT RAIN  59  59 100 CALM      29.72F
MANASSAS*      LGT RAIN  59  57  93 E5        29.72S
GAITHERSBURG*  LGT RAIN  57  56  96 CALM      29.72S

$$

MDZ006>007-011-014-240900-
BALTIMORE METRO

CITY           SKY/WX    TMP DP  RH WIND       PRES   REMARKS
BWI AIRPORT    LGT RAIN  58  57  97 E9        29.70F
MD SCIENCE CTR   N/A     60  57  89 MISG      29.71F
MARTIN STATE   RAIN      59  59 100 CALM      29.73S
ANNAPOLIS      CLOUDY    59  56  89 NE6       29.70F
FORT MEADE*    CLOUDY    55  55 100 E3        29.73F

$$

MDZ012-015-019>023-240900-
MARYLAND EASTERN SHORE

CITY           SKY/WX    TMP DP  RH WIND       PRES   REMARKS
OCEAN CITY     LGT RAIN  58  57  97 NE13      29.67F FOG
SALISBURY      CLOUDY    57  57 100 N7        29.67F
BAY BRIDGE AP* LGT RAIN  57  54  88 NE5       29.71S
CAMBRIDGE*       N/A     57  57 100 NE5       29.69F FOG
EASTON*        RAIN      57  54  90 NE7       29.74F

$$

MDZ017>025-240900-
SOUTHERN MARYLAND

CITY           SKY/WX    TMP DP  RH WIND       PRES   REMARKS
PATUXENT RIVER CLOUDY    58  58 100 NE9       29.69S
ST INIGOES     CLOUDY    59  57  93 NE6       29.68F
LEONARDTOWN*   CLOUDY    55  54  94 NE5       29.70F

$$

MDZ003>005-240900-
NORTH CENTRAL MARYLAND

CITY           SKY/WX    TMP DP  RH WIND       PRES   REMARKS
FREDERICK*     RAIN      59  59 100 CALM      29.74S
HAGERSTOWN APT LGT RAIN  57  56  96 N5        29.72S FOG
WESTMINSTER*   RAIN      57  55  94 CALM      29.72R

$$

MDZ501>502-240900-
WESTERN MARYLAND

CITY           SKY/WX    TMP DP  RH WIND       PRES   REMARKS
OAKLAND*       FOG       50  50 100 SE12G20   29.70S VSB 1/4
CUMBERLAND*    CLOUDY    55  55 100 NW3       29.75S

$$

VAZ025>031-240900-
SHENANDOAH VALLEY

CITY           SKY/WX    TMP DP  RH WIND       PRES   REMARKS
WINCHESTER*    LGT RAIN  55  54  94 CALM      29.70F
FRONT ROYAL*   CLOUDY    55  55 100 CALM      29.69F
LURAY*         MOCLDY    55  55 100 N3        29.70F
NEW MARKET*    CLOUDY    56  55  95 N3        29.70S
STAUNTON*      DRIZZLE   56  55  97 NE5       29.72F
WAYNESBORO*    CLOUDY    56  56 100 CALM      29.71F

$$

WVZ021-048>050-054>055-240900-
EASTERN WEST VIRGINIA PANHANDLE

CITY           SKY/WX    TMP DP  RH WIND       PRES   REMARKS
MARTINSBURG    CLOUDY    56  55  97 CALM      29.70F FOG
PETERSBURG*    CLOUDY    58  57  97 CALM      29.70F FOG

$$

VAZ036>039-050-240900-
CENTRAL FOOTHILLS

CITY           SKY/WX    TMP DP  RH WIND       PRES   REMARKS
CHARLOTTESVILL CLOUDY    57  55  93 NE5       29.71F
CULPEPER*      DRIZZLE   58  58  99 CALM      29.72F
ORANGE*        RAIN      54  54 100 CALM      29.71F
GORDONSVILLE*  CLOUDY    55  55 100 NE5       29.71F FOG
WARRENTON*     DRIZZLE   59  56  91 CALM      29.71F

$$

VAZ055>057-240900-
NORTH AND CENTRAL PIEDMONT

CITY           SKY/WX    TMP DP  RH WIND       PRES   REMARKS
FREDERICKSBRG* HVY RAIN  57  57 100 N5        29.71S
STAFFORD*      RAIN      56  56 100 NE3       29.76S

$$

NCZ024-NYZ072-PAZ021-071-VAZ022-071-240900-
OTHER REGIONAL OBSERVATIONS

CITY           SKY/WX    TMP DP  RH WIND       PRES   REMARKS
NEW YORK CITY  CLOUDY    60  49  66 VRB5      29.76F
PHILADELPHIA   CLOUDY    57  51  80 E7        29.72F
PITTSBURGH     CLOUDY    58  55  90 E3        29.66F
ROANOKE        LGT RAIN  58  57  97 CALM      29.70F
RICHMOND       LGT RAIN  58  58 100 N8        29.68S FOG
RALEIGH        MOCLDY    65  64  97 CALM      29.66F

$$

ANZ530>537-240900-
MARINE OBSERVATIONS

STATION/POSITION TIME  TEMP    WIND        PRES
                       AIR SEA DIR/SP/G
                 (UTC) (F)     (DEG/KT/KT) (MB)
THOMAS PT LIGHT  0800   58 65   50/  8/  9   N/A
BALT KEY BRIDGE  0748   59     100/  4/  5 1006.0F
COVE POINT       0748   57      60/ 14/ 17 1005.8F
LEWISETTA        0748   59 67   60/ 11/ 15 1004.9F
SOLOMONS ISLAND  0748   58 67   30/  7/  9   N/A
PINEY POINT      0748           70/  5/  7   N/A

$$




USA.gov is the U.S. government's official web portal to all federal, state and local government web resources and services.